| time (UTC) | temp F | wind direction | speed MPH | gust MPH | rain 1hr in | rain 24hr in | rain mn in | humidity % | barometer mb |
| 20260503182717 | 53 | 264 | 0.0 | 0.0 | 0.00 | 0.16 | 0.00 | 41 | 1004.1 |
| 20260503182211 | 53 | 344 | 0.0 | 0.0 | 0.00 | 0.16 | 0.00 | 40 | 1004.0 |
| 20260503181705 | 52 | 284 | 0.0 | 0.0 | 0.00 | 0.16 | 0.00 | 43 | 1004.1 |
| 20260503181159 | 51 | 321 | 0.0 | 0.0 | 0.00 | 0.16 | 0.00 | 42 | 1004.1 |
| 20260503180653 | 51 | 266 | 0.0 | 0.0 | 0.00 | 0.16 | 0.00 | 42 | 1004.0 |
| 20260503180632 | 51 | 332 | 0.0 | 0.0 | 0.00 | 0.16 | 0.00 | 46 | 1004.0 |
| 20260503175905 | 51 | 337 | 0.0 | 0.0 | 0.00 | 0.16 | 0.00 | 45 | 1004.0 |
| 20260503175135 | 51 | 269 | 0.0 | 0.0 | 0.00 | 0.16 | 0.00 | 47 | 1004.1 |
| 20260503174628 | 51 | 142 | 0.0 | 0.0 | 0.00 | 0.16 | 0.00 | 45 | 1004.1 |
| 20260503174123 | 51 | 289 | 0.0 | 0.0 | 0.00 | 0.16 | 0.00 | 46 | 1004.0 |
| 20260503173617 | 51 | 298 | 0.0 | 0.0 | 0.00 | 0.16 | 0.00 | 49 | 1004.0 |
| 20260503173111 | 51 | 267 | 0.0 | 0.0 | 0.00 | 0.16 | 0.00 | 54 | 1004.0 |
| 20260503172605 | 50 | 5 | 0.0 | 0.0 | 0.00 | 0.16 | 0.00 | 53 | 1004.1 |
| 20260503172059 | 49 | 327 | 0.0 | 0.0 | 0.00 | 0.16 | 0.00 | 54 | 1004.1 |
| 20260503171552 | 49 | 60 | 0.0 | 0.0 | 0.00 | 0.16 | 0.00 | 55 | 1004.1 |
| 20260503171318 | 49 | 355 | 0.0 | 0.0 | 0.00 | 0.16 | 0.00 | 54 | 1004.2 |
| 20260503170549 | 49 | 297 | 0.0 | 0.0 | 0.00 | 0.16 | 0.00 | 55 | 1004.2 |
| 20260503150544 | 45 | 347 | 0.0 | 2.0 | 0.00 | 0.16 | 0.00 | 71 | 1004.9 |
| 20260503131028 | 42 | 17 | 1.0 | 3.0 | 0.00 | 0.17 | 0.00 | 77 | 1005.9 |
| 20260503130522 | 42 | 15 | 1.0 | 3.0 | 0.00 | 0.17 | 0.00 | 78 | 1005.9 |
| 20260503120129 | 41 | 241 | 0.0 | 2.0 | 0.00 | 0.17 | 0.00 | 79 | 1006.4 |
| 20260503110804 | 41 | 341 | 0.0 | 1.0 | 0.00 | 0.17 | 0.00 | 80 | 1006.5 |
| 20260503110258 | 41 | 341 | 0.0 | 1.0 | 0.00 | 0.17 | 0.00 | 80 | 1006.4 |
| 20260503100146 | 41 | 158 | 0.0 | 1.0 | 0.00 | 0.17 | 0.00 | 81 | 1006.4 |
| 20260503090251 | 40 | 158 | 0.0 | 0.0 | 0.00 | 0.17 | 0.00 | 80 | 1006.8 |
| 20260503081159 | 41 | 158 | 0.0 | 0.0 | 0.00 | 0.17 | 0.00 | 80 | 1007.5 |
| 20260503080428 | 41 | 158 | 0.0 | 2.0 | 0.00 | 0.17 | 0.00 | 80 | 1007.4 |
| 20260503072907 | 41 | 158 | 0.0 | 1.0 | 0.00 | 0.17 | 0.00 | 80 | 1007.5 |
| 20260503072406 | 41 | 119 | 0.0 | 0.0 | 0.00 | 0.17 | 0.00 | 80 | 1007.4 |
| 20260503071905 | 41 | 119 | 0.0 | 0.0 | 0.00 | 0.17 | 0.00 | 80 | 1007.5 |
| 20260503071404 | 41 | 119 | 0.0 | 0.0 | 0.00 | 0.17 | 0.00 | 80 | 1007.4 |
| 20260503070903 | 41 | 119 | 0.0 | 0.0 | 0.00 | 0.17 | 0.00 | 80 | 1007.5 |
| 20260503070844 | 41 | 119 | 0.0 | 0.0 | 0.00 | 0.17 | 0.00 | 80 | 1007.5 |
| 20260503055114 | 42 | 119 | 0.0 | 0.0 | 0.00 | 0.17 | 0.00 | 80 | 1008.6 |
| 20260503054355 | 42 | 119 | 0.0 | 0.0 | 0.00 | 0.17 | 0.00 | 80 | 1008.5 |
| 20260503053856 | 42 | 119 | 0.0 | 0.0 | 0.00 | 0.17 | 0.00 | 80 | 1009.0 |
| 20260503053355 | 42 | 119 | 0.0 | 0.0 | 0.00 | 0.17 | 0.00 | 80 | 1009.0 |
| 20260503052854 | 42 | 119 | 0.0 | 0.0 | 0.00 | 0.17 | 0.00 | 80 | 1008.9 |
| 20260503052356 | 42 | 119 | 0.0 | 0.0 | 0.00 | 0.17 | 0.00 | 80 | 1008.7 |
| 20260503051855 | 42 | 119 | 0.0 | 0.0 | 0.00 | 0.17 | 0.00 | 80 | 1009.0 |
| 20260503051355 | 43 | 119 | 0.0 | 0.0 | 0.00 | 0.17 | 0.00 | 80 | 1009.4 |
| 20260503050856 | 43 | 119 | 0.0 | 0.0 | 0.00 | 0.17 | 0.00 | 80 | 1009.4 |
| 20260503050613 | 43 | 119 | 0.0 | 0.0 | 0.00 | 0.17 | 0.00 | 80 | 1009.3 |
| 20260503045856 | 43 | 76 | 0.0 | 0.0 | 0.00 | 0.17 | 0.00 | 80 | 1009.3 |
| 20260503045354 | 43 | 76 | 0.0 | 0.0 | 0.00 | 0.17 | 0.00 | 80 | 1009.5 |
| 20260503044855 | 43 | 76 | 0.0 | 0.0 | 0.00 | 0.17 | 0.00 | 80 | 1009.6 |
| 20260503044352 | 43 | 76 | 0.0 | 0.0 | 0.00 | 0.17 | 0.00 | 80 | 1009.6 |
| 20260503043854 | 43 | 76 | 0.0 | 0.0 | 0.00 | 0.17 | 0.00 | 80 | 1009.6 |
| 20260503043352 | 43 | 76 | 0.0 | 0.0 | 0.00 | 0.17 | 0.00 | 80 | 1009.4 |
| 20260503042848 | 43 | 76 | 0.0 | 0.0 | 0.00 | 0.17 | 0.00 | 80 | 1009.4 |
| 20260503042347 | 43 | 76 | 0.0 | 0.0 | 0.00 | 0.17 | 0.00 | 80 | 1009.6 |
| 20260503042110 | 43 | 76 | 0.0 | 0.0 | 0.00 | 0.17 | 0.00 | 80 | 1009.5 |
| 20260503041347 | 43 | 76 | 0.0 | 0.0 | 0.00 | 0.17 | 0.00 | 80 | 1009.6 |
| 20260503040846 | 43 | 76 | 0.0 | 0.0 | 0.00 | 0.17 | 0.00 | 80 | 1009.6 |
| 20260503040342 | 43 | 76 | 0.0 | 0.0 | 0.00 | 0.17 | 0.00 | 80 | 1009.6 |
| 20260503035840 | 43 | 76 | 0.0 | 0.0 | 0.00 | 0.17 | 0.17 | 80 | 1009.8 |
| 20260503035340 | 43 | 76 | 0.0 | 0.0 | 0.01 | 0.17 | 0.17 | 80 | 1009.7 |
| 20260503034836 | 43 | 76 | 0.0 | 0.0 | 0.01 | 0.17 | 0.17 | 80 | 1009.7 |
| 20260503034335 | 43 | 76 | 0.0 | 0.0 | 0.01 | 0.17 | 0.17 | 80 | 1009.8 |
| 20260503034059 | 43 | 76 | 0.0 | 0.0 | 0.01 | 0.17 | 0.17 | 80 | 1009.9 |
| 20260503033335 | 43 | 76 | 0.0 | 0.0 | 0.01 | 0.17 | 0.17 | 80 | 1009.8 |
| 20260503033319 | 43 | 76 | 0.0 | 0.0 | 0.01 | 0.17 | 0.17 | 79 | 1009.9 |
| 20260503032334 | 43 | 76 | 0.0 | 0.0 | 0.01 | 0.17 | 0.17 | 79 | 1010.0 |
| 20260503031835 | 43 | 76 | 0.0 | 0.0 | 0.01 | 0.17 | 0.17 | 79 | 1010.0 |
| 20260503031334 | 43 | 76 | 0.0 | 0.0 | 0.01 | 0.17 | 0.17 | 79 | 1010.0 |
| 20260503030836 | 43 | 76 | 0.0 | 0.0 | 0.01 | 0.17 | 0.17 | 79 | 1009.9 |
| 20260503030336 | 43 | 76 | 0.0 | 0.0 | 0.01 | 0.17 | 0.17 | 79 | 1009.9 |
| 20260503025835 | 43 | 76 | 0.0 | 0.0 | 0.01 | 0.17 | 0.17 | 79 | 1009.8 |
| 20260503025334 | 43 | 76 | 0.0 | 0.0 | 0.00 | 0.16 | 0.16 | 79 | 1009.9 |
| 20260503025053 | 44 | 76 | 0.0 | 0.0 | 0.00 | 0.16 | 0.16 | 79 | 1010.0 |
| 20260503024335 | 44 | 76 | 0.0 | 0.0 | 0.00 | 0.16 | 0.16 | 79 | 1010.2 |
| 20260503023835 | 44 | 76 | 0.0 | 0.0 | 0.00 | 0.16 | 0.16 | 79 | 1010.0 |
| 20260503023335 | 44 | 76 | 0.0 | 0.0 | 0.00 | 0.16 | 0.16 | 79 | 1010.2 |
| 20260503022834 | 44 | 76 | 0.0 | 0.0 | 0.00 | 0.16 | 0.16 | 79 | 1010.3 |
| 20260503022332 | 44 | 76 | 0.0 | 0.0 | 0.00 | 0.16 | 0.16 | 79 | 1010.3 |
| 20260503021826 | 44 | 76 | 0.0 | 0.0 | 0.01 | 0.16 | 0.16 | 80 | 1010.3 |
| 20260503021318 | 44 | 76 | 0.0 | 0.0 | 0.01 | 0.16 | 0.16 | 80 | 1010.2 |
| 20260503020813 | 44 | 76 | 0.0 | 0.0 | 0.01 | 0.16 | 0.16 | 80 | 1010.2 |
| 20260503020307 | 44 | 76 | 0.0 | 0.0 | 0.01 | 0.16 | 0.16 | 80 | 1010.3 |
| 20260503015801 | 44 | 76 | 0.0 | 0.0 | 0.02 | 0.16 | 0.16 | 80 | 1010.3 |
| 20260503015255 | 44 | 76 | 0.0 | 0.0 | 0.02 | 0.16 | 0.16 | 80 | 1010.4 |
| 20260503014750 | 44 | 76 | 0.0 | 0.0 | 0.02 | 0.16 | 0.16 | 80 | 1010.4 |
| 20260503014243 | 44 | 76 | 0.0 | 0.0 | 0.02 | 0.16 | 0.16 | 80 | 1010.5 |
| 20260503013737 | 44 | 76 | 0.0 | 0.0 | 0.02 | 0.16 | 0.16 | 79 | 1010.5 |
| 20260503013231 | 44 | 76 | 0.0 | 0.0 | 0.03 | 0.16 | 0.16 | 80 | 1010.7 |
| 20260503012729 | 44 | 76 | 0.0 | 0.0 | 0.03 | 0.16 | 0.16 | 79 | 1010.6 |
| 20260503012228 | 44 | 76 | 0.0 | 0.0 | 0.03 | 0.16 | 0.16 | 79 | 1010.6 |
| 20260503011730 | 44 | 76 | 0.0 | 0.0 | 0.02 | 0.15 | 0.15 | 79 | 1010.6 |
| 20260503011228 | 44 | 76 | 0.0 | 0.0 | 0.02 | 0.15 | 0.15 | 79 | 1010.7 |
| 20260503010728 | 44 | 76 | 0.0 | 0.0 | 0.02 | 0.15 | 0.15 | 79 | 1010.7 |
| 20260503010230 | 44 | 76 | 0.0 | 0.0 | 0.01 | 0.14 | 0.15 | 79 | 1010.8 |
| 20260503005730 | 44 | 76 | 0.0 | 0.0 | 0.01 | 0.14 | 0.14 | 79 | 1010.7 |
| 20260503005457 | 44 | 76 | 0.0 | 0.0 | 0.01 | 0.14 | 0.14 | 79 | 1010.7 |
| 20260503004728 | 44 | 76 | 0.0 | 0.0 | 0.01 | 0.14 | 0.14 | 79 | 1010.7 |
| 20260503004709 | 44 | 76 | 0.0 | 0.0 | 0.01 | 0.14 | 0.14 | 79 | 1010.7 |
| 20260503003730 | 44 | 76 | 0.0 | 0.0 | 0.01 | 0.14 | 0.14 | 79 | 1010.7 |
| 20260503003229 | 44 | 76 | 0.0 | 0.0 | 0.00 | 0.13 | 0.13 | 79 | 1010.7 |
| 20260503002957 | 44 | 76 | 0.0 | 0.0 | 0.00 | 0.13 | 0.13 | 79 | 1010.7 |
| 20260503002229 | 44 | 76 | 0.0 | 0.0 | 0.00 | 0.13 | 0.13 | 79 | 1010.6 |
| 20260503001728 | 44 | 76 | 0.0 | 0.0 | 0.01 | 0.13 | 0.13 | 79 | 1010.6 |
| 20260503001226 | 44 | 76 | 0.0 | 0.0 | 0.01 | 0.13 | 0.13 | 79 | 1010.6 |
| 20260503000948 | 44 | 76 | 0.0 | 0.0 | 0.01 | 0.13 | 0.13 | 79 | 1010.5 |
| 20260503000221 | 44 | 76 | 0.0 | 0.0 | 0.01 | 0.13 | 0.13 | 79 | 1010.4 |
| 20260502235715 | 45 | 76 | 0.0 | 0.0 | 0.01 | 0.13 | 0.13 | 79 | 1010.2 |
| 20260502235209 | 45 | 76 | 0.0 | 0.0 | 0.01 | 0.13 | 0.13 | 79 | 1010.3 |
| 20260502234703 | 45 | 76 | 0.0 | 0.0 | 0.01 | 0.13 | 0.13 | 79 | 1010.4 |
| 20260502234157 | 45 | 76 | 0.0 | 0.0 | 0.01 | 0.13 | 0.13 | 79 | 1010.4 |
| 20260502233651 | 45 | 76 | 0.0 | 0.0 | 0.01 | 0.13 | 0.13 | 79 | 1010.4 |
| 20260502233145 | 45 | 76 | 0.0 | 0.0 | 0.01 | 0.13 | 0.13 | 79 | 1010.3 |
| 20260502232640 | 45 | 76 | 0.0 | 0.0 | 0.02 | 0.13 | 0.13 | 79 | 1010.3 |
| 20260502232133 | 45 | 76 | 0.0 | 0.0 | 0.02 | 0.13 | 0.13 | 79 | 1010.3 |
| 20260502231627 | 45 | 76 | 0.0 | 0.0 | 0.01 | 0.12 | 0.12 | 79 | 1010.2 |
| 20260502231121 | 45 | 76 | 0.0 | 0.0 | 0.02 | 0.12 | 0.12 | 79 | 1010.2 |
| 20260502230615 | 45 | 76 | 0.0 | 0.0 | 0.02 | 0.12 | 0.12 | 79 | 1010.2 |
| 20260502230110 | 45 | 76 | 0.0 | 0.0 | 0.02 | 0.12 | 0.12 | 79 | 1010.2 |
| 20260502225603 | 45 | 76 | 0.0 | 0.0 | 0.02 | 0.12 | 0.12 | 79 | 1010.2 |
| 20260502225057 | 45 | 76 | 0.0 | 0.0 | 0.03 | 0.12 | 0.12 | 79 | 1010.3 |
| 20260502224551 | 45 | 76 | 0.0 | 0.0 | 0.03 | 0.12 | 0.12 | 79 | 1010.3 |
| 20260502224045 | 45 | 76 | 0.0 | 0.0 | 0.03 | 0.12 | 0.12 | 78 | 1010.1 |
| 20260502223539 | 45 | 76 | 0.0 | 0.0 | 0.03 | 0.12 | 0.12 | 78 | 1010.1 |
| 20260502223033 | 45 | 76 | 0.0 | 0.0 | 0.03 | 0.12 | 0.12 | 78 | 1010.0 |
| 20260502222527 | 45 | 76 | 0.0 | 0.0 | 0.02 | 0.11 | 0.11 | 78 | 1010.1 |
| 20260502222021 | 45 | 76 | 0.0 | 0.0 | 0.02 | 0.11 | 0.11 | 78 | 1010.2 |
| 20260502221516 | 45 | 76 | 0.0 | 0.0 | 0.02 | 0.10 | 0.11 | 78 | 1010.1 |
| 20260502221009 | 45 | 76 | 0.0 | 0.0 | 0.02 | 0.10 | 0.10 | 78 | 1010.3 |
| 20260502220504 | 45 | 76 | 0.0 | 0.0 | 0.02 | 0.10 | 0.10 | 78 | 1010.3 |
| 20260502215957 | 45 | 76 | 0.0 | 0.0 | 0.03 | 0.10 | 0.10 | 78 | 1010.4 |
| 20260502215451 | 45 | 76 | 0.0 | 0.0 | 0.03 | 0.10 | 0.10 | 78 | 1010.4 |
| 20260502215213 | 46 | 76 | 0.0 | 0.0 | 0.03 | 0.09 | 0.09 | 78 | 1010.4 |
| 20260502214439 | 46 | 76 | 0.0 | 0.0 | 0.03 | 0.09 | 0.09 | 78 | 1010.4 |
| 20260502213934 | 46 | 76 | 0.0 | 0.0 | 0.04 | 0.09 | 0.09 | 78 | 1010.5 |
| 20260502213427 | 46 | 76 | 0.0 | 0.0 | 0.04 | 0.09 | 0.09 | 78 | 1010.5 |
| 20260502212920 | 46 | 76 | 0.0 | 0.0 | 0.05 | 0.09 | 0.09 | 78 | 1010.5 |
| 20260502212415 | 46 | 76 | 0.0 | 0.0 | 0.06 | 0.09 | 0.09 | 78 | 1010.4 |
| 20260502211909 | 45 | 76 | 0.0 | 0.0 | 0.06 | 0.09 | 0.09 | 78 | 1010.4 |
| 20260502211403 | 45 | 76 | 0.0 | 0.0 | 0.05 | 0.08 | 0.08 | 78 | 1010.5 |
| 20260502210857 | 45 | 76 | 0.0 | 0.0 | 0.05 | 0.08 | 0.08 | 77 | 1010.5 |
| 20260502210351 | 45 | 76 | 0.0 | 0.0 | 0.06 | 0.08 | 0.08 | 77 | 1010.6 |
| 20260502205845 | 45 | 76 | 0.0 | 0.0 | 0.05 | 0.07 | 0.07 | 77 | 1010.5 |
| 20260502205339 | 45 | 76 | 0.0 | 0.0 | 0.05 | 0.07 | 0.07 | 77 | 1010.6 |
| 20260502204833 | 45 | 76 | 0.0 | 0.0 | 0.04 | 0.06 | 0.06 | 76 | 1010.5 |
| 20260502204327 | 45 | 76 | 0.0 | 0.0 | 0.04 | 0.06 | 0.06 | 75 | 1010.4 |
| 20260502204306 | 45 | 76 | 0.0 | 0.0 | 0.03 | 0.05 | 0.05 | 75 | 1010.4 |
| 20260502203321 | 45 | 76 | 0.0 | 0.0 | 0.03 | 0.05 | 0.05 | 74 | 1010.5 |
| 20260502202818 | 45 | 76 | 0.0 | 0.0 | 0.02 | 0.04 | 0.04 | 74 | 1010.6 |
| 20260502202317 | 45 | 76 | 0.0 | 0.0 | 0.01 | 0.03 | 0.03 | 73 | 1010.5 |
| 20260502201815 | 45 | 76 | 0.0 | 0.0 | 0.01 | 0.03 | 0.03 | 72 | 1010.5 |
| 20260502201314 | 45 | 76 | 0.0 | 0.0 | 0.02 | 0.03 | 0.03 | 72 | 1010.5 |
| 20260502200809 | 45 | 76 | 0.0 | 0.0 | 0.01 | 0.02 | 0.03 | 72 | 1010.5 |
| 20260502200309 | 45 | 76 | 0.0 | 0.0 | 0.01 | 0.02 | 0.02 | 72 | 1010.6 |
| 20260502195809 | 45 | 76 | 0.0 | 0.0 | 0.01 | 0.02 | 0.02 | 71 | 1010.5 |
| 20260502195309 | 45 | 76 | 0.0 | 0.0 | 0.01 | 0.02 | 0.02 | 70 | 1010.6 |
| 20260502194805 | 45 | 76 | 0.0 | 0.0 | 0.01 | 0.02 | 0.02 | 70 | 1010.5 |
| 20260502194305 | 45 | 76 | 0.0 | 0.0 | 0.01 | 0.02 | 0.02 | 70 | 1010.5 |
| 20260502193802 | 45 | 76 | 0.0 | 0.0 | 0.01 | 0.02 | 0.02 | 70 | 1010.6 |
| 20260502193300 | 46 | 76 | 0.0 | 0.0 | 0.01 | 0.02 | 0.02 | 70 | 1010.6 |
| 20260502192758 | 46 | 76 | 0.0 | 0.0 | 0.01 | 0.02 | 0.02 | 69 | 1010.7 |
| 20260502192256 | 46 | 76 | 0.0 | 0.0 | 0.01 | 0.02 | 0.02 | 69 | 1010.7 |
| 20260502191753 | 46 | 76 | 0.0 | 0.0 | 0.00 | 0.01 | 0.01 | 69 | 1010.8 |
| 20260502191254 | 46 | 76 | 0.0 | 0.0 | 0.00 | 0.01 | 0.01 | 69 | 1010.8 |
| 20260502191018 | 46 | 76 | 0.0 | 0.0 | 0.00 | 0.01 | 0.01 | 69 | 1010.8 |
| 20260502190253 | 46 | 76 | 0.0 | 0.0 | 0.00 | 0.01 | 0.01 | 69 | 1010.9 |
| 20260502185753 | 46 | 76 | 0.0 | 0.0 | 0.00 | 0.01 | 0.01 | 69 | 1010.9 |
| 20260502185247 | 46 | 76 | 0.0 | 0.0 | 0.00 | 0.01 | 0.01 | 69 | 1011.0 |
| 20260502185007 | 46 | 76 | 0.0 | 0.0 | 0.00 | 0.01 | 0.01 | 68 | 1011.1 |
| 20260502184244 | 46 | 76 | 0.0 | 0.0 | 0.00 | 0.01 | 0.01 | 68 | 1011.1 |
| 20260502183743 | 46 | 76 | 0.0 | 0.0 | 0.00 | 0.01 | 0.01 | 68 | 1011.1 |
| 20260502183241 | 46 | 76 | 0.0 | 0.0 | 0.00 | 0.01 | 0.01 | 68 | 1011.1 |